Weather History for Boonville, MO

Change the Weather History Date:

Saturday, November 12, 2011

  Actual Average Record
Temperature  
Mean Temperature 51 °F -  
Max Temperature 61 °F 51 °F 82 °F (1949)
Min Temperature 41 °F 33 °F 17 °F (1950)
Degree Days  
Heating Degree Days 14    
Growing Degree Days 1 (Base 50)    
Moisture  
Dew Point 34 °F    
Average Humidity 49    
Maximum Humidity 69    
Minimum Humidity 34    
Precipitation  
Precipitation 0.00 in - - ()
Sea Level Pressure  
Sea Level Pressure 29.71 in    
Wind  
Wind Speed 9 mph (SSE)    
Max Wind Speed 18 mph    
Max Gust Speed 24 mph    
Visibility 10 miles    
Events      
Averages and records for this station are not official NWS values.
T = Trace of Precipitation, MM = Missing Value Source: NWS Daily Summary

Daily Weather History Graph

Daily Weather History Graph

Search for Another Location

Airport:

Trip Planner

Search our weather history database for the weather conditions in past years. The results will help you decide how hot, cold, wet, or windy it might be!

Date:

Astronomy

Nov. 12, 2011 Rise Set
Actual Time 6:49 AM CST 4:59 PM CST
Civil Twilight 6:21 AM CST 5:27 PM CST
Nautical Twilight 5:49 AM CST 5:59 PM CST
Astronomical Twilight 5:18 AM CST 6:31 PM CST
Moon 6:16 PM CST (11/12) 8:31 AM CST (11/12)
Length of Visible Light 11h 06m
Length of Day
10h 09m
Full, 97% of the Moon is Illuminated
Nov 12
Full
Nov 18
Last Quarter
Nov 25
New
Dec 2
First Quarter
Dec 10
Full

Hourly Weather History & Observations

Time (CST) Temp. Windchill Dew Point Humidity Pressure Visibility Wind Dir Wind Speed Gust Speed Precip Events Conditions
12:15 AM 52.7 °F - 32.9 °F 47% 29.84 in 10.0 mi SW 6.9 mph - N/A   Clear
12:35 AM 52.0 °F - 32.7 °F 48% 29.84 in 10.0 mi SSW 4.6 mph - N/A   Clear
12:55 AM 51.3 °F - 32.5 °F 49% 29.83 in 10.0 mi Calm Calm - N/A   Clear
1:15 AM 49.8 °F - 32.5 °F 51% 29.83 in 10.0 mi South 4.6 mph - N/A   Clear
1:35 AM 48.6 °F - 32.5 °F 54% 29.83 in 10.0 mi SSE 4.6 mph - N/A   Clear
1:55 AM 46.9 °F - 32.7 °F 58% 29.82 in 10.0 mi SE 5.8 mph - N/A   Clear
2:15 AM 45.0 °F 41.2 °F 32.7 °F 62% 29.82 in 10.0 mi SSE 6.9 mph - N/A   Clear
2:35 AM 43.7 °F 40.3 °F 32.5 °F 65% 29.82 in 10.0 mi SSE 5.8 mph - N/A   Clear
2:55 AM 42.8 °F 40.1 °F 32.2 °F 66% 29.82 in 10.0 mi SSE 4.6 mph - N/A   Clear
3:15 AM 41.5 °F 37.1 °F 32.0 °F 69% 29.81 in 10.0 mi SSE 6.9 mph - N/A   Clear
4:15 AM 42.6 °F 38.4 °F 31.8 °F 66% 29.80 in 10.0 mi South 6.9 mph - N/A   Clear
4:35 AM 43.0 °F 38.2 °F 32.0 °F 65% 29.80 in 10.0 mi South 8.1 mph - N/A   Clear
4:55 AM 43.5 °F 38.9 °F 31.8 °F 63% 29.79 in 10.0 mi South 8.1 mph - N/A   Clear
5:55 AM 43.5 °F 38.9 °F 31.5 °F 63% 29.78 in 10.0 mi SSE 8.1 mph - N/A   Clear
6:15 AM 43.9 °F 38.8 °F 31.3 °F 61% 29.78 in 10.0 mi SSE 9.2 mph - N/A   Clear
6:35 AM 44.2 °F 39.2 °F 31.1 °F 60% 29.78 in 10.0 mi SSE 9.2 mph - N/A   Clear
7:15 AM 44.6 °F 39.7 °F 31.5 °F 60% 29.78 in 10.0 mi SSE 9.2 mph - N/A   Clear
7:55 AM 46.2 °F 41.7 °F 32.0 °F 58% 29.78 in 10.0 mi SSE 9.2 mph - N/A   Clear
8:15 AM 47.7 °F - 32.0 °F 55% 29.78 in 10.0 mi SSE 9.2 mph - N/A   Clear
8:35 AM 49.5 °F - 32.0 °F 51% 29.78 in 10.0 mi SSE 10.4 mph - N/A   Clear
8:55 AM 51.8 °F - 31.8 °F 47% 29.78 in 10.0 mi South 10.4 mph - N/A   Clear
9:15 AM 53.1 °F - 32.0 °F 45% 29.78 in 10.0 mi SSE 4.6 mph - N/A   Clear
9:35 AM 54.1 °F - 32.2 °F 43% 29.77 in 10.0 mi SSE 9.2 mph - N/A   Clear
9:55 AM 55.9 °F - 32.0 °F 40% 29.77 in 10.0 mi SSE 12.7 mph 17.3 mph N/A   Clear
10:15 AM 56.3 °F - 31.8 °F 39% 29.77 in 10.0 mi SSE 12.7 mph 18.4 mph N/A   Clear
10:35 AM 56.5 °F - 32.2 °F 40% 29.76 in 10.0 mi SSE 10.4 mph 18.4 mph N/A   Clear
10:55 AM 57.0 °F - 32.2 °F 39% 29.75 in 10.0 mi South 12.7 mph 19.6 mph N/A   Clear
11:15 AM 58.3 °F - 32.2 °F 37% 29.74 in 10.0 mi SSE 15.0 mph 18.4 mph N/A   Clear
11:35 AM 59.5 °F - 31.8 °F 35% 29.73 in 10.0 mi SSE 18.4 mph - N/A   Clear
11:55 AM 59.9 °F - 31.6 °F 34% 29.71 in 10.0 mi SSE 13.8 mph - N/A   Clear
12:15 PM 59.9 °F - 31.6 °F 34% 29.70 in 10.0 mi SSE 13.8 mph 20.7 mph N/A   Clear
12:35 PM 60.1 °F - 31.8 °F 34% 29.67 in 10.0 mi SSE 16.1 mph 23.0 mph N/A   Clear
12:55 PM 60.3 °F - 31.5 °F 34% 29.66 in 10.0 mi SSE 16.1 mph 20.7 mph N/A   Clear
1:15 PM 59.9 °F - 31.1 °F 34% 29.65 in 10.0 mi SSE 15.0 mph 20.7 mph N/A   Clear
1:35 PM 59.4 °F - 31.3 °F 35% 29.64 in 10.0 mi SSE 13.8 mph 21.9 mph N/A   Clear
1:55 PM 59.4 °F - 30.9 °F 34% 29.64 in 10.0 mi SSE 17.3 mph 24.2 mph N/A   Clear
2:15 PM 59.0 °F - 31.1 °F 35% 29.63 in 10.0 mi SSE 18.4 mph - N/A   Clear
2:35 PM 59.0 °F - 31.6 °F 36% 29.61 in 10.0 mi SSE 16.1 mph 19.6 mph N/A   Clear
2:55 PM 59.0 °F - 32.4 °F 37% 29.60 in 10.0 mi SSE 15.0 mph - N/A   Clear
3:15 PM 60.3 °F - 32.9 °F 36% 29.60 in 10.0 mi SSE 15.0 mph 21.9 mph N/A   Clear
3:35 PM 60.6 °F - 33.1 °F 36% 29.60 in 10.0 mi South 16.1 mph 21.9 mph N/A   Clear
3:55 PM 61.0 °F - 34.3 °F 37% 29.60 in 10.0 mi South 13.8 mph 20.7 mph N/A   Clear
4:15 PM 60.8 °F - 35.4 °F 39% 29.59 in 10.0 mi South 12.7 mph 19.6 mph N/A   Clear
4:35 PM 60.3 °F - 36.0 °F 40% 29.60 in 10.0 mi South 9.2 mph - N/A   Clear
4:55 PM 59.7 °F - 36.9 °F 43% 29.60 in 10.0 mi South 11.5 mph - N/A   Clear
5:15 PM 59.4 °F - 37.6 °F 44% 29.60 in 10.0 mi South 10.4 mph 16.1 mph N/A   Clear
5:35 PM 59.2 °F - 38.5 °F 46% 29.60 in 10.0 mi South 8.1 mph - N/A   Clear
5:55 PM 58.8 °F - 39.2 °F 48% 29.60 in 10.0 mi South 13.8 mph 19.6 mph N/A   Clear
6:15 PM 58.8 °F - 40.3 °F 50% 29.60 in 10.0 mi South 11.5 mph 21.9 mph N/A   Clear
6:35 PM 58.6 °F - 41.4 °F 53% 29.60 in 10.0 mi South 15.0 mph 21.9 mph N/A   Clear
6:55 PM 58.5 °F - 42.3 °F 55% 29.60 in 10.0 mi South 11.5 mph 20.7 mph N/A   Clear
7:15 PM 57.9 °F - 43.0 °F 58% 29.60 in 10.0 mi South 13.8 mph 21.9 mph N/A   Clear
7:35 PM 57.2 °F - 43.7 °F 61% 29.60 in 10.0 mi South 11.5 mph 16.1 mph N/A   Clear
7:55 PM 57.7 °F - 44.8 °F 62% 29.60 in 10.0 mi South 16.1 mph 19.6 mph N/A   Clear
8:15 PM 58.1 °F - 45.5 °F 63% 29.59 in 10.0 mi South 12.7 mph 20.7 mph N/A   Clear
8:35 PM 58.1 °F - 45.9 °F 64% 29.59 in 10.0 mi South 13.8 mph 24.2 mph N/A   Clear
9:15 PM 57.9 °F - 46.6 °F 66% 29.59 in 10.0 mi South 12.7 mph 19.6 mph N/A   Clear
9:55 PM 57.6 °F - 47.1 °F 68% 29.57 in 10.0 mi South 13.8 mph 20.7 mph N/A   Clear
10:15 PM 57.4 °F - 47.3 °F 69% 29.57 in 10.0 mi South 12.7 mph - N/A   Clear
10:35 PM 57.4 °F - 47.5 °F 70% 29.55 in 10.0 mi South 15.0 mph 19.6 mph N/A   Clear
10:55 PM 57.6 °F - 47.8 °F 70% 29.55 in 10.0 mi South 12.7 mph 20.7 mph N/A   Clear
11:15 PM 57.4 °F - 48.0 °F 71% 29.55 in 10.0 mi South 10.4 mph - N/A   Clear
11:35 PM 57.0 °F - 48.2 °F 72% 29.55 in 10.0 mi South 8.1 mph - N/A   Clear
11:55 PM 56.5 °F - 48.4 °F 74% 29.55 in 10.0 mi South 8.1 mph - N/A   Clear